FW6820 Weather Reports


Display with metric or nautical units.
time (UTC)temp
F
wind
direction
speed
MPH
gust
MPH
rain 1hr
in
rain 24hr
in
rain mn
in
humidity
%
barometer
mb
20260508130036 70 26 4.0 9.0 0.00 0.07 0.05 94 1011.7
20260508124540 69 320 4.0 10.0 0.00 0.07 0.05 94 1012.0
20260508123040 69 344 4.0 10.0 0.00 0.07 0.05 94 1012.0
20260508121543 69 342 3.0 9.0 0.00 0.07 0.05 94 1011.8
20260508120042 69 334 6.0 10.0 0.00 0.07 0.05 94 1011.5
20260508114550 70 317 3.0 8.0 0.00 0.07 0.05 94 1011.2
20260508113043 70 297 5.0 10.0 0.00 0.07 0.05 94 1011.3
20260508111556 70 336 3.0 8.0 0.00 0.07 0.05 94 1010.8
20260508110036 70 338 2.0 3.0 0.00 0.07 0.05 94 1011.2
20260508104541 70 301 2.0 8.0 0.00 0.07 0.05 94 1011.7
20260508103041 70 314 5.0 10.0 0.00 0.07 0.05 94 1011.5
20260508101537 70 313 6.0 10.0 0.00 0.07 0.05 94 1011.3
20260508100034 70 28 2.0 5.0 0.00 0.07 0.05 94 1010.8
20260508094545 70 325 4.0 9.0 0.01 0.07 0.05 93 1011.0
20260508093039 71 292 4.0 9.0 0.01 0.07 0.05 94 1011.4
20260508091544 71 320 5.0 9.0 0.01 0.07 0.05 93 1011.3
20260508090036 71 340 3.0 9.0 0.01 0.07 0.05 94 1010.7
20260508084541 71 5 4.0 10.0 0.00 0.06 0.04 94 1010.9
20260508083048 71 355 5.0 11.0 0.00 0.06 0.04 93 1011.2
20260508081546 72 360 3.0 7.0 0.00 0.06 0.04 93 1011.4
20260508080053 72 340 1.0 3.0 0.00 0.06 0.04 94 1011.9
20260508074543 72 347 4.0 9.0 0.01 0.06 0.04 93 1011.6
20260508073038 73 360 6.0 12.0 0.01 0.06 0.04 93 1011.4
20260508071540 73 32 4.0 9.0 0.01 0.06 0.04 93 1011.4
20260508070039 72 72 3.0 8.0 0.01 0.05 0.03 93 1011.9
20260508064541 72 96 4.0 10.0 0.02 0.05 0.03 93 1011.9
20260508063040 72 26 3.0 8.0 0.03 0.05 0.03 93 1012.0
20260508061540 72 50 4.0 9.0 0.02 0.04 0.02 93 1012.1
20260508060037 72 100 2.0 6.0 0.02 0.04 0.02 92 1012.2
20260508054544 72 187 0.0 3.0 0.01 0.03 0.01 92 1013.9
20260508053047 72 175 3.0 6.0 0.01 0.02 0.00 92 1014.4
20260508051550 71 107 1.0 5.0 0.01 0.02 0.00 92 1013.5
20260508050039 71 75 3.0 9.0 0.01 0.02 0.00 91 1012.6
20260508044543 71 92 3.0 10.0 0.02 0.02 0.02 91 1012.7
20260508043049 71 69 7.0 12.0 0.01 0.01 0.01 90 1012.0
20260508041541 71 101 2.0 7.0 0.01 0.01 0.01 90 1012.1
20260508040040 71 92 2.0 12.0 0.01 0.01 0.01 89 1012.5
20260508034549 72 10 6.0 12.0 0.00 0.00 0.00 89 1012.4
20260508033044 72 5 4.0 10.0 0.00 0.00 0.00 89 1013.5
20260508031539 72 49 6.0 14.0 0.00 0.00 0.00 88 1012.9
20260508030040 72 68 6.0 13.0 0.00 0.00 0.00 88 1013.0
20260508024537 72 69 6.0 21.0 0.00 0.00 0.00 88 1012.7
20260508023033 72 87 5.0 17.0 0.00 0.00 0.00 87 1012.3
20260508021541 73 43 6.0 14.0 0.00 0.00 0.00 86 1012.6
20260508020041 72 24 7.0 14.0 0.00 0.00 0.00 86 1012.5
20260508014540 73 67 10.0 18.0 0.00 0.00 0.00 86 1012.2
20260508013038 73 57 9.0 16.0 0.00 0.00 0.00 85 1012.3
20260508011545 73 20 11.0 17.0 0.00 0.00 0.00 84 1011.9
20260508010042 74 64 8.0 18.0 0.00 0.00 0.00 84 1011.9
20260508004542 74 35 8.0 15.0 0.00 0.00 0.00 83 1011.3
20260508003040 74 71 8.0 19.0 0.00 0.00 0.00 83 1011.0
20260508001538 75 35 8.0 17.0 0.00 0.00 0.00 82 1011.6
20260508000038 75 18 11.0 17.0 0.00 0.00 0.00 81 1011.4
20260507234549 76 9 9.0 19.0 0.00 0.00 0.00 81 1010.9
20260507233042 76 46 8.0 16.0 0.00 0.00 0.00 80 1010.7
20260507231547 77 36 8.0 17.0 0.00 0.00 0.00 79 1010.6
20260507230040 77 65 7.0 14.0 0.00 0.00 0.00 79 1010.6
20260507224547 77 360 7.0 15.0 0.00 0.00 0.00 79 1010.9
20260507223042 78 71 9.0 15.0 0.00 0.00 0.00 78 1011.2
20260507221541 79 74 7.0 16.0 0.00 0.00 0.00 77 1011.1
20260507220040 79 15 8.0 16.0 0.00 0.00 0.00 76 1010.9
20260507214539 79 62 8.0 15.0 0.00 0.00 0.00 76 1010.9
20260507213045 80 55 7.0 16.0 0.00 0.00 0.00 75 1011.1
20260507211543 81 75 8.0 20.0 0.00 0.00 0.00 75 1010.9
20260507210045 81 25 6.0 16.0 0.00 0.00 0.00 74 1010.9
20260507204542 81 68 7.0 20.0 0.00 0.00 0.00 75 1011.2
20260507203044 81 42 7.0 18.0 0.00 0.00 0.00 75 1011.3
20260507201558 80 34 10.0 19.0 0.00 0.00 0.00 76 1011.7
20260507200040 79 38 7.0 19.0 0.00 0.00 0.00 78 1012.0
20260507194540 79 15 8.0 16.0 0.00 0.00 0.00 78 1012.2
20260507193049 79 74 9.0 16.0 0.00 0.00 0.00 78 1012.4
20260507191539 79 28 7.0 16.0 0.00 0.00 0.00 79 1012.5
20260507190037 79 23 9.0 16.0 0.00 0.00 0.00 79 1012.8
20260507184549 78 46 6.0 15.0 0.00 0.00 0.00 80 1013.1
20260507183044 77 46 8.0 15.0 0.00 0.00 0.00 81 1013.1
20260507181540 76 72 6.0 18.0 0.00 0.00 0.00 83 1013.4
20260507180039 76 67 9.0 15.0 0.00 0.00 0.00 83 1013.5
20260507174538 75 22 6.0 16.0 0.00 0.00 0.00 83 1013.6
20260507173045 76 13 7.0 17.0 0.00 0.00 0.00 82 1013.8
20260507171555 77 36 10.0 18.0 0.00 0.00 0.00 81 1013.7
20260507170044 77 26 7.0 14.0 0.00 0.00 0.00 82 1013.8
20260507164539 76 35 5.0 15.0 0.00 0.00 0.00 82 1013.8
20260507163039 76 32 6.0 16.0 0.00 0.00 0.00 84 1013.6
20260507161540 75 33 9.0 16.0 0.00 0.00 0.00 84 1013.7
20260507160047 74 34 8.0 15.0 0.00 0.00 0.00 86 1013.6
20260507154542 73 28 8.0 17.0 0.00 0.00 0.00 87 1013.6
20260507153034 72 5 9.0 15.0 0.00 0.00 0.00 88 1013.5
20260507151544 72 37 9.0 15.0 0.00 0.00 0.00 88 1013.4
20260507150041 72 36 8.0 16.0 0.00 0.00 0.00 89 1013.4
20260507144604 72 19 8.0 16.0 0.00 0.00 0.00 90 1013.2
20260507143040 72 13 11.0 16.0 0.00 0.00 0.00 90 1013.1
20260507141542 73 28 7.0 17.0 0.00 0.00 0.00 90 1013.1
20260507140035 73 15 9.0 16.0 0.00 0.00 0.00 90 1012.8
20260507134544 73 23 10.0 16.0 0.00 0.00 0.00 90 1012.5
20260507133041 74 5 10.0 16.0 0.00 0.00 0.00 90 1012.1
20260507131543 75 22 9.0 14.0 0.00 0.00 0.00 89 1011.7